| time (UTC) | temp C | wind direction | speed KPH | gust KPH | rain 1hr cm | rain 24hr cm | rain mn cm | humidity % | barometer mb |
| 20260831232012 | 28 | 244 | 0.0 | 3.2 | 0.00 | 0.00 | 0.00 | 29 | 1019.0 |
| 20260831231527 | 28 | 193 | 0.0 | 3.2 | 0.00 | 0.00 | 0.00 | 29 | 1019.0 |
| 20260831231017 | 28 | 192 | 0.0 | 3.2 | 0.00 | 0.00 | 0.00 | 28 | 1019.1 |
| 20260831230515 | 29 | 213 | 0.0 | 3.2 | 0.00 | 0.00 | 0.00 | 28 | 1019.1 |
| 20260831230037 | 29 | 59 | 0.0 | 4.8 | 0.00 | 0.00 | 0.00 | 30 | 1019.2 |
| 20260831225518 | 30 | 194 | 1.6 | 6.4 | 0.00 | 0.00 | 0.00 | 28 | 1019.2 |
| 20260831225016 | 30 | 38 | 0.0 | 6.4 | 0.00 | 0.00 | 0.00 | 28 | 1019.3 |
| 20260831224519 | 29 | 229 | 1.6 | 6.4 | 0.00 | 0.00 | 0.00 | 27 | 1019.3 |
| 20260831224014 | 29 | 360 | 1.6 | 8.0 | 0.00 | 0.00 | 0.00 | 28 | 1019.2 |
| 20260831223514 | 29 | 36 | 4.8 | 8.0 | 0.00 | 0.00 | 0.00 | 28 | 1019.2 |
| 20260831223037 | 29 | 133 | 3.2 | 8.0 | 0.00 | 0.00 | 0.00 | 29 | 1019.2 |
| 20260831222519 | 28 | 42 | 0.0 | 4.8 | 0.00 | 0.00 | 0.00 | 29 | 1019.2 |
| 20260831222016 | 28 | 40 | 1.6 | 4.8 | 0.00 | 0.00 | 0.00 | 31 | 1019.4 |
| 20260831221536 | 28 | 37 | 0.0 | 4.8 | 0.00 | 0.00 | 0.00 | 31 | 1019.4 |
| 20260831221023 | 28 | 17 | 1.6 | 3.2 | 0.00 | 0.00 | 0.00 | 29 | 1019.5 |
| 20260831220513 | 28 | 52 | 0.0 | 3.2 | 0.00 | 0.00 | 0.00 | 30 | 1019.5 |
| 20260831220028 | 28 | 44 | 1.6 | 4.8 | 0.00 | 0.00 | 0.00 | 31 | 1019.5 |
| 20260831215519 | 28 | 35 | 1.6 | 4.8 | 0.00 | 0.00 | 0.00 | 31 | 1019.5 |
| 20260831215024 | 28 | 72 | 1.6 | 8.0 | 0.00 | 0.00 | 0.00 | 30 | 1019.5 |
| 20260831214504 | 28 | 75 | 3.2 | 8.0 | 0.00 | 0.00 | 0.00 | 31 | 1019.6 |
| 20260831214003 | 28 | 53 | 3.2 | 4.8 | 0.00 | 0.00 | 0.00 | 31 | 1019.6 |
| 20260831213508 | 28 | 38 | 1.6 | 4.8 | 0.00 | 0.00 | 0.00 | 31 | 1019.6 |
| 20260831213030 | 28 | 119 | 1.6 | 4.8 | 0.00 | 0.00 | 0.00 | 30 | 1019.8 |
| 20260831212513 | 28 | 53 | 0.0 | 9.7 | 0.00 | 0.00 | 0.00 | 30 | 1019.9 |
| 20260831212016 | 28 | 59 | 1.6 | 9.7 | 0.00 | 0.00 | 0.00 | 31 | 1020.0 |
| 20260831211531 | 28 | 55 | 4.8 | 8.0 | 0.00 | 0.00 | 0.00 | 31 | 1020.1 |
| 20260831211004 | 28 | 40 | 4.8 | 6.4 | 0.00 | 0.00 | 0.00 | 30 | 1020.2 |
| 20260831210504 | 28 | 35 | 3.2 | 6.4 | 0.00 | 0.00 | 0.00 | 30 | 1020.2 |
| 20260831210015 | 28 | 76 | 1.6 | 6.4 | 0.00 | 0.00 | 0.00 | 31 | 1020.3 |
| 20260831205508 | 28 | 92 | 1.6 | 4.8 | 0.00 | 0.00 | 0.00 | 31 | 1020.3 |
| 20260831205010 | 28 | 19 | 1.6 | 6.4 | 0.00 | 0.00 | 0.00 | 31 | 1020.4 |
| 20260831204525 | 28 | 138 | 1.6 | 11.3 | 0.00 | 0.00 | 0.00 | 31 | 1020.5 |
| 20260831204016 | 28 | 144 | 1.6 | 11.3 | 0.00 | 0.00 | 0.00 | 31 | 1020.5 |
| 20260831203515 | 28 | 142 | 1.6 | 8.0 | 0.00 | 0.00 | 0.00 | 32 | 1020.5 |
| 20260831203010 | 28 | 82 | 0.0 | 8.0 | 0.00 | 0.00 | 0.00 | 32 | 1020.6 |
| 20260831202507 | 28 | 130 | 1.6 | 9.7 | 0.00 | 0.03 | 0.00 | 32 | 1020.6 |
| 20260831202007 | 28 | 125 | 0.0 | 9.7 | 0.00 | 0.03 | 0.00 | 31 | 1020.7 |
| 20260831201522 | 28 | 36 | 4.8 | 9.7 | 0.00 | 0.15 | 0.00 | 32 | 1020.8 |
| 20260831201012 | 28 | 79 | 3.2 | 6.4 | 0.00 | 0.15 | 0.00 | 32 | 1020.8 |
| 20260831200514 | 28 | 86 | 3.2 | 8.0 | 0.00 | 0.15 | 0.00 | 30 | 1020.9 |
| 20260831200030 | 28 | 130 | 3.2 | 8.0 | 0.00 | 0.15 | 0.00 | 30 | 1020.9 |
| 20260831195515 | 28 | 73 | 1.6 | 6.4 | 0.00 | 0.15 | 0.00 | 33 | 1020.9 |
| 20260831195004 | 27 | 24 | 0.0 | 6.4 | 0.00 | 0.15 | 0.00 | 37 | 1021.0 |
| 20260831194508 | 27 | 39 | 1.6 | 6.4 | 0.00 | 0.15 | 0.00 | 36 | 1021.0 |
| 20260831194008 | 27 | 331 | 0.0 | 6.4 | 0.00 | 0.15 | 0.00 | 38 | 1021.0 |
| 20260831193510 | 27 | 338 | 1.6 | 6.4 | 0.00 | 0.15 | 0.00 | 37 | 1021.2 |
| 20260831193024 | 27 | 5 | 0.0 | 6.4 | 0.00 | 0.15 | 0.00 | 39 | 1021.2 |
| 20260831192515 | 26 | 24 | 1.6 | 6.4 | 0.00 | 0.15 | 0.00 | 40 | 1021.3 |
| 20260831192021 | 26 | 32 | 1.6 | 6.4 | 0.00 | 0.18 | 0.00 | 39 | 1021.4 |
| 20260831191530 | 26 | 9 | 3.2 | 6.4 | 0.00 | 0.18 | 0.00 | 39 | 1021.5 |
| 20260831191003 | 26 | 57 | 3.2 | 4.8 | 0.00 | 0.18 | 0.00 | 39 | 1021.7 |
| 20260831190506 | 26 | 28 | 1.6 | 8.0 | 0.00 | 0.18 | 0.00 | 40 | 1021.7 |
| 20260831190014 | 26 | 38 | 3.2 | 8.0 | 0.00 | 0.18 | 0.00 | 40 | 1021.8 |
| 20260831185512 | 26 | 107 | 1.6 | 3.2 | 0.00 | 0.18 | 0.00 | 40 | 1021.9 |
| 20260831185012 | 26 | 12 | 1.6 | 8.0 | 0.00 | 0.18 | 0.00 | 41 | 1021.9 |
| 20260831184531 | 25 | 360 | 3.2 | 8.0 | 0.00 | 0.18 | 0.00 | 41 | 1021.9 |
| 20260831184017 | 25 | 32 | 0.0 | 8.0 | 0.00 | 0.18 | 0.00 | 41 | 1021.9 |
| 20260831183517 | 25 | 46 | 3.2 | 8.0 | 0.00 | 0.18 | 0.00 | 41 | 1022.0 |
| 20260831183009 | 25 | 34 | 3.2 | 8.0 | 0.00 | 0.18 | 0.00 | 40 | 1022.0 |
| 20260831182506 | 25 | 28 | 1.6 | 4.8 | 0.00 | 0.18 | 0.00 | 41 | 1022.0 |
| 20260831182012 | 25 | 360 | 1.6 | 4.8 | 0.00 | 0.18 | 0.00 | 41 | 1022.1 |
| 20260831181521 | 24 | 317 | 0.0 | 3.2 | 0.00 | 0.18 | 0.00 | 40 | 1022.1 |
| 20260831181014 | 24 | 352 | 0.0 | 4.8 | 0.00 | 0.18 | 0.00 | 40 | 1022.1 |
| 20260831180515 | 23 | 350 | 0.0 | 4.8 | 0.00 | 0.18 | 0.00 | 43 | 1022.1 |
| 20260831180030 | 23 | 13 | 1.6 | 6.4 | 0.00 | 0.18 | 0.00 | 43 | 1022.1 |
| 20260831175521 | 23 | 346 | 1.6 | 6.4 | 0.00 | 0.18 | 0.00 | 43 | 1022.2 |
| 20260831175007 | 23 | 9 | 0.0 | 3.2 | 0.00 | 0.18 | 0.00 | 44 | 1022.2 |
| 20260831174531 | 23 | 326 | 0.0 | 4.8 | 0.00 | 0.18 | 0.00 | 44 | 1022.2 |
| 20260831174014 | 23 | 34 | 1.6 | 4.8 | 0.00 | 0.18 | 0.00 | 45 | 1022.2 |
| 20260831173515 | 23 | 21 | 1.6 | 4.8 | 0.00 | 0.18 | 0.00 | 45 | 1022.2 |
| 20260831173027 | 23 | 48 | 3.2 | 4.8 | 0.00 | 0.18 | 0.00 | 45 | 1022.2 |
| 20260831172520 | 23 | 94 | 1.6 | 4.8 | 0.00 | 0.18 | 0.00 | 47 | 1022.2 |
| 20260831172016 | 23 | 42 | 1.6 | 6.4 | 0.00 | 0.18 | 0.00 | 45 | 1022.3 |
| 20260831171510 | 23 | 51 | 1.6 | 6.4 | 0.00 | 0.18 | 0.00 | 47 | 1022.2 |
| 20260831171007 | 23 | 48 | 1.6 | 4.8 | 0.00 | 0.18 | 0.00 | 43 | 1022.3 |
| 20260831170508 | 23 | 58 | 1.6 | 6.4 | 0.00 | 0.18 | 0.00 | 44 | 1022.3 |
| 20260831170018 | 22 | 45 | 1.6 | 6.4 | 0.00 | 0.18 | 0.00 | 45 | 1022.3 |
| 20260831165514 | 22 | 38 | 1.6 | 6.4 | 0.00 | 0.18 | 0.00 | 45 | 1022.3 |
| 20260831165017 | 22 | 28 | 0.0 | 6.4 | 0.00 | 0.18 | 0.00 | 46 | 1022.2 |
| 20260831164529 | 22 | 38 | 3.2 | 6.4 | 0.00 | 0.18 | 0.00 | 47 | 1022.3 |
| 20260831164018 | 22 | 22 | 1.6 | 6.4 | 0.00 | 0.18 | 0.00 | 46 | 1022.3 |
| 20260831163504 | 22 | 34 | 4.8 | 6.4 | 0.00 | 0.18 | 0.00 | 45 | 1022.3 |
| 20260831163012 | 22 | 21 | 0.0 | 6.4 | 0.00 | 0.18 | 0.00 | 45 | 1022.2 |
| 20260831162509 | 22 | 22 | 1.6 | 8.0 | 0.00 | 0.18 | 0.00 | 45 | 1022.2 |
| 20260831162012 | 22 | 47 | 4.8 | 8.0 | 0.00 | 0.18 | 0.00 | 46 | 1022.2 |
| 20260831161528 | 22 | 81 | 3.2 | 9.7 | 0.00 | 0.18 | 0.00 | 48 | 1022.1 |
| 20260831161015 | 22 | 16 | 3.2 | 8.0 | 0.00 | 0.18 | 0.00 | 47 | 1022.0 |
| 20260831160514 | 22 | 37 | 1.6 | 4.8 | 0.00 | 0.18 | 0.00 | 49 | 1021.9 |
| 20260831160033 | 23 | 69 | 3.2 | 3.2 | 0.00 | 0.18 | 0.00 | 47 | 1021.9 |
| 20260831155506 | 22 | 46 | 0.0 | 3.2 | 0.00 | 0.18 | 0.00 | 43 | 1021.8 |
| 20260831155008 | 22 | 46 | 0.0 | 3.2 | 0.00 | 0.18 | 0.00 | 40 | 1021.9 |
| 20260831154526 | 22 | 46 | 1.6 | 3.2 | 0.00 | 0.18 | 0.00 | 46 | 1021.8 |
| 20260831154004 | 22 | 46 | 0.0 | 3.2 | 0.00 | 0.18 | 0.00 | 45 | 1021.8 |
| 20260831153503 | 22 | 46 | 1.6 | 3.2 | 0.00 | 0.18 | 0.00 | 48 | 1021.7 |
| 20260831153006 | 22 | 18 | 0.0 | 1.6 | 0.00 | 0.18 | 0.00 | 51 | 1021.7 |
| 20260831152503 | 21 | 28 | 0.0 | 1.6 | 0.00 | 0.18 | 0.00 | 52 | 1021.7 |
| 20260831152004 | 21 | 38 | 1.6 | 4.8 | 0.00 | 0.18 | 0.00 | 52 | 1021.8 |
| 20260831151504 | 21 | 57 | 0.0 | 4.8 | 0.00 | 0.18 | 0.00 | 58 | 1021.8 |
| 20260831151004 | 21 | 39 | 1.6 | 4.8 | 0.00 | 0.18 | 0.00 | 58 | 1021.8 |
| 20260831150502 | 21 | 41 | 0.0 | 4.8 | 0.00 | 0.18 | 0.00 | 58 | 1021.8 |
| 20260831150002 | 20 | 41 | 0.0 | 4.8 | 0.00 | 0.18 | 0.00 | 59 | 1021.8 |
| 20260831145503 | 20 | 38 | 1.6 | 4.8 | 0.00 | 0.18 | 0.00 | 55 | 1021.8 |
| 20260831145005 | 20 | 167 | 0.0 | 4.8 | 0.00 | 0.18 | 0.00 | 53 | 1021.8 |
| 20260831144505 | 20 | 195 | 0.0 | 4.8 | 0.00 | 0.18 | 0.00 | 57 | 1021.9 |
| 20260831144004 | 19 | 174 | 0.0 | 4.8 | 0.00 | 0.18 | 0.00 | 57 | 1021.9 |
| 20260831143504 | 18 | 188 | 0.0 | 3.2 | 0.00 | 0.18 | 0.00 | 64 | 1021.9 |
| 20260831143004 | 18 | 179 | 0.0 | 3.2 | 0.00 | 0.18 | 0.00 | 64 | 1021.8 |
| 20260831142504 | 17 | 177 | 0.0 | 3.2 | 0.00 | 0.18 | 0.00 | 65 | 1021.7 |
| 20260831142002 | 17 | 150 | 0.0 | 3.2 | 0.00 | 0.18 | 0.00 | 66 | 1021.7 |
| 20260831141502 | 17 | 90 | 0.0 | 3.2 | 0.00 | 0.18 | 0.00 | 69 | 1021.7 |
| 20260831141003 | 17 | 67 | 0.0 | 3.2 | 0.00 | 0.18 | 0.00 | 70 | 1021.7 |
| 20260831140504 | 17 | 67 | 0.0 | 3.2 | 0.00 | 0.18 | 0.00 | 70 | 1021.7 |
| 20260831140006 | 16 | 187 | 0.0 | 3.2 | 0.00 | 0.18 | 0.00 | 69 | 1021.6 |
| 20260831135503 | 16 | 201 | 0.0 | 3.2 | 0.00 | 0.18 | 0.00 | 69 | 1021.5 |
| 20260831135003 | 16 | 190 | 0.0 | 3.2 | 0.00 | 0.18 | 0.00 | 69 | 1021.4 |
| 20260831134505 | 16 | 176 | 0.0 | 3.2 | 0.00 | 0.18 | 0.00 | 68 | 1021.3 |
| 20260831134002 | 16 | 176 | 0.0 | 3.2 | 0.00 | 0.18 | 0.00 | 68 | 1021.3 |
| 20260831133504 | 16 | 176 | 0.0 | 0.0 | 0.00 | 0.18 | 0.00 | 67 | 1021.2 |
| 20260831133006 | 16 | 176 | 0.0 | 0.0 | 0.00 | 0.18 | 0.00 | 66 | 1021.1 |
| 20260831132504 | 16 | 176 | 0.0 | 3.2 | 0.00 | 0.18 | 0.00 | 66 | 1021.1 |
| 20260831132004 | 16 | 176 | 0.0 | 3.2 | 0.00 | 0.18 | 0.00 | 65 | 1021.0 |
| 20260831131510 | 16 | 176 | 0.0 | 3.2 | 0.00 | 0.18 | 0.00 | 65 | 1021.1 |
| 20260831131009 | 16 | 176 | 0.0 | 3.2 | 0.00 | 0.18 | 0.00 | 64 | 1020.9 |
| 20260831130505 | 16 | 176 | 0.0 | 3.2 | 0.00 | 0.18 | 0.00 | 63 | 1020.9 |
| 20260831130003 | 16 | 176 | 0.0 | 3.2 | 0.00 | 0.18 | 0.00 | 63 | 1020.8 |
| 20260831125503 | 16 | 111 | 0.0 | 3.2 | 0.00 | 0.18 | 0.00 | 63 | 1020.8 |
| 20260831125004 | 16 | 76 | 0.0 | 3.2 | 0.00 | 0.18 | 0.00 | 61 | 1020.6 |
| 20260831124509 | 16 | 76 | 0.0 | 3.2 | 0.00 | 0.18 | 0.00 | 62 | 1020.4 |
| 20260831124005 | 16 | 76 | 0.0 | 3.2 | 0.00 | 0.18 | 0.00 | 60 | 1020.4 |
| 20260831123505 | 17 | 76 | 0.0 | 3.2 | 0.00 | 0.18 | 0.00 | 57 | 1020.5 |
| 20260831123008 | 17 | 76 | 0.0 | 1.6 | 0.00 | 0.18 | 0.00 | 57 | 1020.5 |
| 20260831122504 | 17 | 76 | 0.0 | 3.2 | 0.00 | 0.18 | 0.00 | 57 | 1020.4 |
| 20260831122004 | 17 | 76 | 0.0 | 3.2 | 0.00 | 0.18 | 0.00 | 56 | 1020.4 |
| 20260831121505 | 17 | 76 | 0.0 | 3.2 | 0.00 | 0.18 | 0.00 | 56 | 1020.2 |
| 20260831121005 | 17 | 9 | 0.0 | 3.2 | 0.00 | 0.18 | 0.00 | 56 | 1020.1 |
| 20260831120507 | 17 | 257 | 0.0 | 4.8 | 0.00 | 0.18 | 0.00 | 54 | 1020.1 |
| 20260831120011 | 17 | 283 | 0.0 | 4.8 | 0.00 | 0.18 | 0.00 | 54 | 1020.1 |
| 20260831115506 | 17 | 239 | 0.0 | 3.2 | 0.00 | 0.18 | 0.00 | 53 | 1020.1 |
| 20260831115004 | 17 | 225 | 0.0 | 3.2 | 0.00 | 0.18 | 0.00 | 52 | 1019.9 |
| 20260831114510 | 17 | 239 | 0.0 | 6.4 | 0.00 | 0.18 | 0.00 | 54 | 1020.0 |
| 20260831114004 | 17 | 220 | 1.6 | 6.4 | 0.00 | 0.18 | 0.00 | 54 | 1020.0 |
| 20260831113506 | 16 | 243 | 1.6 | 4.8 | 0.00 | 0.18 | 0.00 | 59 | 1020.0 |
| 20260831113009 | 16 | 176 | 0.0 | 3.2 | 0.00 | 0.18 | 0.00 | 60 | 1020.0 |
| 20260831112503 | 16 | 312 | 0.0 | 3.2 | 0.00 | 0.18 | 0.00 | 60 | 1019.9 |
| 20260831112005 | 16 | 312 | 0.0 | 3.2 | 0.00 | 0.18 | 0.00 | 60 | 1019.9 |
| 20260831111508 | 16 | 201 | 0.0 | 3.2 | 0.00 | 0.18 | 0.00 | 60 | 1019.8 |
| 20260831111007 | 16 | 236 | 0.0 | 3.2 | 0.00 | 0.18 | 0.00 | 61 | 1019.9 |
| 20260831110508 | 16 | 232 | 1.6 | 3.2 | 0.00 | 0.18 | 0.00 | 59 | 1019.9 |
| 20260831110003 | 16 | 146 | 0.0 | 3.2 | 0.00 | 0.18 | 0.00 | 59 | 1019.8 |
| 20260831105506 | 16 | 153 | 0.0 | 3.2 | 0.00 | 0.18 | 0.00 | 59 | 1019.9 |
| 20260831105007 | 16 | 153 | 0.0 | 3.2 | 0.00 | 0.18 | 0.00 | 58 | 1019.8 |
| 20260831104526 | 16 | 154 | 1.6 | 3.2 | 0.00 | 0.18 | 0.00 | 56 | 1019.7 |
| 20260831104007 | 16 | 205 | 0.0 | 3.2 | 0.00 | 0.18 | 0.00 | 61 | 1019.7 |
| 20260831103505 | 16 | 205 | 0.0 | 3.2 | 0.00 | 0.18 | 0.00 | 62 | 1019.7 |
| 20260831103008 | 16 | 104 | 0.0 | 3.2 | 0.00 | 0.18 | 0.00 | 63 | 1019.6 |
| 20260831102508 | 16 | 145 | 0.0 | 3.2 | 0.00 | 0.18 | 0.00 | 63 | 1019.7 |
| 20260831102005 | 16 | 108 | 0.0 | 3.2 | 0.00 | 0.18 | 0.00 | 65 | 1019.6 |
| 20260831101507 | 16 | 103 | 0.0 | 4.8 | 0.00 | 0.18 | 0.00 | 65 | 1019.6 |
| 20260831101005 | 16 | 117 | 0.0 | 4.8 | 0.00 | 0.18 | 0.00 | 66 | 1019.6 |
| 20260831100509 | 16 | 172 | 0.0 | 3.2 | 0.00 | 0.18 | 0.00 | 66 | 1019.6 |
| 20260831100009 | 16 | 172 | 0.0 | 3.2 | 0.00 | 0.18 | 0.00 | 65 | 1019.4 |
| 20260831095512 | 16 | 169 | 0.0 | 3.2 | 0.00 | 0.18 | 0.00 | 64 | 1019.3 |
| 20260831095007 | 16 | 168 | 0.0 | 3.2 | 0.00 | 0.18 | 0.00 | 65 | 1019.2 |
| 20260831094514 | 16 | 190 | 0.0 | 3.2 | 0.00 | 0.18 | 0.00 | 66 | 1019.2 |
| 20260831094004 | 16 | 199 | 0.0 | 3.2 | 0.00 | 0.18 | 0.00 | 66 | 1019.2 |
| 20260831093504 | 16 | 202 | 0.0 | 3.2 | 0.00 | 0.18 | 0.00 | 65 | 1019.1 |
| 20260831090004 | 17 | 215 | 0.0 | 3.2 | 0.00 | 0.18 | 0.00 | 62 | 1019.1 |
| 20260831085503 | 17 | 219 | 0.0 | 1.6 | 0.00 | 0.18 | 0.00 | 61 | 1019.1 |
| 20260831085006 | 17 | 187 | 0.0 | 3.2 | 0.00 | 0.18 | 0.00 | 61 | 1019.2 |
| 20260831084515 | 17 | 186 | 0.0 | 3.2 | 0.00 | 0.18 | 0.00 | 60 | 1019.2 |
| 20260831084007 | 17 | 192 | 0.0 | 3.2 | 0.00 | 0.18 | 0.00 | 59 | 1019.2 |
| 20260831083508 | 17 | 192 | 0.0 | 3.2 | 0.00 | 0.18 | 0.00 | 56 | 1019.3 |
| 20260831083014 | 18 | 188 | 0.0 | 3.2 | 0.00 | 0.18 | 0.00 | 56 | 1019.3 |
| 20260831082506 | 18 | 188 | 0.0 | 3.2 | 0.00 | 0.18 | 0.00 | 55 | 1019.4 |
| 20260831082003 | 18 | 188 | 0.0 | 3.2 | 0.00 | 0.18 | 0.00 | 54 | 1019.3 |
| 20260831081508 | 18 | 188 | 0.0 | 3.2 | 0.00 | 0.18 | 0.00 | 53 | 1019.4 |
| 20260831081010 | 19 | 188 | 0.0 | 3.2 | 0.00 | 0.18 | 0.00 | 51 | 1019.5 |
| 20260831080507 | 19 | 188 | 0.0 | 3.2 | 0.00 | 0.18 | 0.00 | 50 | 1019.5 |
| 20260831080018 | 20 | 185 | 0.0 | 3.2 | 0.00 | 0.18 | 0.00 | 48 | 1019.6 |
| 20260831075513 | 20 | 185 | 0.0 | 3.2 | 0.00 | 0.18 | 0.00 | 49 | 1019.6 |
| 20260831075007 | 20 | 185 | 0.0 | 3.2 | 0.00 | 0.18 | 0.00 | 48 | 1019.5 |
| 20260831074514 | 20 | 185 | 0.0 | 3.2 | 0.00 | 0.18 | 0.00 | 46 | 1019.6 |
| 20260831074006 | 20 | 164 | 0.0 | 1.6 | 0.00 | 0.18 | 0.00 | 46 | 1019.7 |
| 20260831073504 | 20 | 145 | 1.6 | 3.2 | 0.00 | 0.18 | 0.00 | 47 | 1019.8 |
| 20260831073011 | 20 | 155 | 1.6 | 3.2 | 0.00 | 0.18 | 0.00 | 46 | 1019.9 |
| 20260831072510 | 20 | 114 | 0.0 | 4.8 | 0.00 | 0.18 | 0.00 | 44 | 1019.9 |
| 20260831072008 | 20 | 186 | 0.0 | 4.8 | 0.00 | 0.18 | 0.00 | 44 | 1019.9 |
| 20260831071519 | 20 | 206 | 1.6 | 6.4 | 0.00 | 0.18 | 0.00 | 44 | 1019.9 |
| 20260831071005 | 20 | 275 | 1.6 | 6.4 | 0.00 | 0.18 | 0.00 | 44 | 1019.9 |
| 20260831070504 | 20 | 277 | 0.0 | 3.2 | 0.00 | 0.18 | 0.00 | 47 | 1019.9 |
| 20260831070007 | 20 | 285 | 0.0 | 3.2 | 0.00 | 0.18 | 0.00 | 46 | 1020.0 |
| 20260831065506 | 20 | 320 | 0.0 | 3.2 | 0.00 | 0.18 | 0.00 | 46 | 1020.1 |
| 20260831065008 | 20 | 302 | 0.0 | 4.8 | 0.00 | 0.18 | 0.00 | 49 | 1020.1 |
| 20260831064522 | 20 | 5 | 0.0 | 4.8 | 0.00 | 0.18 | 0.00 | 49 | 1019.9 |
| 20260831064010 | 20 | 342 | 1.6 | 3.2 | 0.00 | 0.18 | 0.00 | 50 | 1020.0 |
| 20260831063508 | 20 | 79 | 0.0 | 4.8 | 0.00 | 0.18 | 0.00 | 49 | 1020.1 |
| 20260831063004 | 20 | 57 | 1.6 | 4.8 | 0.00 | 0.18 | 0.00 | 48 | 1020.0 |
| 20260831062504 | 20 | 46 | 1.6 | 4.8 | 0.00 | 0.18 | 0.00 | 46 | 1020.0 |
| 20260831062005 | 20 | 36 | 0.0 | 3.2 | 0.00 | 0.18 | 0.00 | 47 | 1020.1 |
| 20260831061511 | 20 | 144 | 0.0 | 3.2 | 0.00 | 0.18 | 0.00 | 46 | 1020.1 |
| 20260831061014 | 21 | 105 | 0.0 | 3.2 | 0.00 | 0.18 | 0.00 | 45 | 1020.1 |
| 20260831060512 | 21 | 194 | 0.0 | 4.8 | 0.00 | 0.18 | 0.00 | 44 | 1020.1 |
| 20260831060021 | 21 | 298 | 1.6 | 8.0 | 0.00 | 0.18 | 0.00 | 44 | 1020.1 |
| 20260831055511 | 21 | 161 | 3.2 | 8.0 | 0.00 | 0.18 | 0.18 | 43 | 1020.1 |
| 20260831055003 | 21 | 334 | 1.6 | 16.1 | 0.00 | 0.18 | 0.18 | 43 | 1020.2 |
| 20260831054506 | 21 | 258 | 3.2 | 16.1 | 0.00 | 0.18 | 0.18 | 43 | 1020.2 |
| 20260831054004 | 21 | 232 | 4.8 | 19.3 | 0.00 | 0.18 | 0.18 | 43 | 1020.3 |
| 20260831053508 | 21 | 169 | 6.4 | 19.3 | 0.00 | 0.18 | 0.18 | 43 | 1020.3 |
| 20260831053014 | 21 | 154 | 4.8 | 16.1 | 0.00 | 0.18 | 0.18 | 42 | 1020.2 |
| 20260831052513 | 21 | 167 | 4.8 | 22.5 | 0.00 | 0.18 | 0.18 | 42 | 1020.4 |
| 20260831052011 | 21 | 205 | 3.2 | 22.5 | 0.00 | 0.18 | 0.18 | 42 | 1020.7 |
| 20260831051525 | 22 | 282 | 3.2 | 19.3 | 0.00 | 0.18 | 0.18 | 41 | 1021.0 |
| 20260831051003 | 22 | 246 | 4.8 | 19.3 | 0.00 | 0.18 | 0.18 | 41 | 1021.3 |
| 20260831050503 | 22 | 198 | 4.8 | 20.9 | 0.00 | 0.18 | 0.18 | 41 | 1021.3 |
| 20260831050013 | 22 | 350 | 8.0 | 22.5 | 0.00 | 0.18 | 0.18 | 40 | 1021.6 |
| 20260831045507 | 22 | 187 | 8.0 | 22.5 | 0.00 | 0.18 | 0.18 | 40 | 1021.7 |
| 20260831045008 | 23 | 192 | 9.7 | 29.0 | 0.00 | 0.18 | 0.18 | 41 | 1021.5 |
| 20260831044523 | 23 | 294 | 9.7 | 29.0 | 0.00 | 0.18 | 0.18 | 40 | 1021.6 |
| 20260831044011 | 23 | 194 | 8.0 | 29.0 | 0.00 | 0.18 | 0.18 | 40 | 1021.6 |
| 20260831043510 | 22 | 267 | 8.0 | 29.0 | 0.00 | 0.18 | 0.18 | 41 | 1021.6 |
| 20260831043004 | 21 | 346 | 8.0 | 27.4 | 0.00 | 0.18 | 0.18 | 43 | 1021.4 |
| 20260831042503 | 20 | 173 | 4.8 | 20.9 | 0.00 | 0.18 | 0.18 | 49 | 1021.3 |
| 20260831042007 | 18 | 248 | 4.8 | 12.9 | 0.00 | 0.18 | 0.18 | 56 | 1021.3 |
| 20260831041513 | 18 | 203 | 0.0 | 3.2 | 0.00 | 0.18 | 0.18 | 62 | 1021.1 |
| 20260831041012 | 18 | 207 | 0.0 | 3.2 | 0.00 | 0.18 | 0.18 | 63 | 1021.0 |
| 20260831040512 | 18 | 207 | 0.0 | 3.2 | 0.00 | 0.18 | 0.18 | 63 | 1020.7 |
| 20260831040021 | 18 | 207 | 0.0 | 3.2 | 0.00 | 0.18 | 0.18 | 62 | 1020.5 |
| 20260831035511 | 18 | 207 | 0.0 | 3.2 | 0.00 | 0.18 | 0.18 | 62 | 1020.4 |
| 20260831035003 | 18 | 207 | 0.0 | 3.2 | 0.00 | 0.18 | 0.18 | 1020.3 | |
| 20260831034507 | 18 | 207 | 0.0 | 3.2 | 0.00 | 0.18 | 0.18 | 1020.3 | |
| 20260831034007 | 18 | 220 | 0.0 | 3.2 | 0.00 | 0.18 | 0.18 | 1020.2 | |
| 20260831033511 | 18 | 98 | 0.0 | 3.2 | 0.00 | 0.18 | 0.18 | 1020.2 | |
| 20260831033020 | 19 | 98 | 0.0 | 3.2 | 0.00 | 0.18 | 0.18 | 61 | 1020.3 |
| 20260831032510 | 19 | 115 | 0.0 | 3.2 | 0.00 | 0.18 | 0.18 | 61 | 1020.3 |
| 20260831032012 | 19 | 115 | 0.0 | 3.2 | 0.00 | 0.18 | 0.18 | 59 | 1020.3 |
| 20260831031530 | 19 | 115 | 0.0 | 3.2 | 0.00 | 0.18 | 0.18 | 60 | 1020.2 |
| 20260831031003 | 19 | 119 | 0.0 | 3.2 | 0.00 | 0.18 | 0.18 | 1020.2 | |
| 20260831030506 | 19 | 139 | 0.0 | 3.2 | 0.00 | 0.18 | 0.18 | 1020.1 | |
| 20260831030010 | 19 | 175 | 0.0 | 3.2 | 0.00 | 0.18 | 0.18 | 1020.1 | |
| 20260831025510 | 19 | 111 | 0.0 | 3.2 | 0.00 | 0.18 | 0.18 | 1020.0 | |
| 20260831025011 | 19 | 117 | 0.0 | 3.2 | 0.00 | 0.18 | 0.18 | 1019.9 | |
| 20260831024526 | 19 | 107 | 1.6 | 3.2 | 0.00 | 0.18 | 0.18 | 1019.9 | |
| 20260831024014 | 19 | 103 | 1.6 | 3.2 | 0.00 | 0.18 | 0.18 | 59 | 1019.8 |
| 20260831023516 | 20 | 49 | 0.0 | 3.2 | 0.00 | 0.18 | 0.18 | 59 | 1019.8 |
| 20260831023005 | 20 | 92 | 0.0 | 3.2 | 0.00 | 0.18 | 0.18 | 59 | 1019.8 |
| 20260831022506 | 20 | 51 | 0.0 | 3.2 | 0.00 | 0.18 | 0.18 | 58 | 1019.8 |
| 20260831022006 | 20 | 104 | 0.0 | 3.2 | 0.00 | 0.18 | 0.18 | 57 | 1019.7 |
| 20260831021516 | 20 | 112 | 0.0 | 3.2 | 0.00 | 0.18 | 0.18 | 57 | 1019.5 |
| 20260831021012 | 20 | 132 | 0.0 | 9.7 | 0.00 | 0.18 | 0.18 | 57 | 1019.4 |
| 20260831020514 | 20 | 352 | 0.0 | 9.7 | 0.00 | 0.18 | 0.18 | 57 | 1019.4 |
| 20260831020027 | 20 | 119 | 0.0 | 3.2 | 0.00 | 0.18 | 0.18 | 57 | 1019.4 |
| 20260831015517 | 20 | 94 | 0.0 | 3.2 | 0.00 | 0.18 | 0.18 | 55 | 1019.4 |
| 20260831015005 | 21 | 33 | 0.0 | 3.2 | 0.00 | 0.18 | 0.18 | 55 | 1019.4 |
| 20260831014510 | 21 | 33 | 0.0 | 3.2 | 0.00 | 0.18 | 0.18 | 54 | 1019.4 |
| 20260831014010 | 21 | 69 | 0.0 | 3.2 | 0.00 | 0.18 | 0.18 | 53 | 1019.4 |
| 20260831013512 | 21 | 109 | 0.0 | 3.2 | 0.00 | 0.18 | 0.18 | 51 | 1019.4 |
| 20260831013038 | 21 | 109 | 0.0 | 3.2 | 0.00 | 0.18 | 0.18 | 50 | 1019.3 |
| 20260831012513 | 22 | 167 | 0.0 | 3.2 | 0.00 | 0.18 | 0.18 | 49 | 1019.3 |
| 20260831012012 | 22 | 231 | 1.6 | 3.2 | 0.00 | 0.18 | 0.18 | 49 | 1019.3 |
| 20260831011526 | 22 | 34 | 0.0 | 3.2 | 0.00 | 0.18 | 0.18 | 47 | 1019.1 |
| 20260831011003 | 22 | 150 | 0.0 | 3.2 | 0.00 | 0.18 | 0.18 | 46 | 1019.2 |
| 20260831010508 | 23 | 213 | 1.6 | 3.2 | 0.00 | 0.18 | 0.18 | 44 | 1019.2 |
| 20260831010017 | 23 | 60 | 0.0 | 12.9 | 0.00 | 0.18 | 0.18 | 43 | 1019.0 |
| 20260831005513 | 23 | 34 | 3.2 | 12.9 | 0.00 | 0.18 | 0.18 | 42 | 1019.1 |
| 20260831005015 | 24 | 350 | 1.6 | 8.0 | 0.00 | 0.18 | 0.18 | 40 | 1019.0 |
| 20260831004527 | 24 | 232 | 0.0 | 8.0 | 0.00 | 0.18 | 0.18 | 40 | 1019.1 |
| 20260831004016 | 24 | 213 | 0.0 | 16.1 | 0.00 | 0.18 | 0.18 | 41 | 1019.1 |
| 20260831003517 | 25 | 165 | 3.2 | 16.1 | 0.00 | 0.18 | 0.18 | 37 | 1019.2 |
| 20260831003027 | 25 | 179 | 3.2 | 8.0 | 0.00 | 0.18 | 0.18 | 39 | 1019.2 |
| 20260831002514 | 25 | 144 | 3.2 | 12.9 | 0.00 | 0.18 | 0.18 | 38 | 1019.3 |
| 20260831002014 | 26 | 161 | 1.6 | 12.9 | 0.00 | 0.18 | 0.18 | 35 | 1019.3 |
| 20260831001525 | 26 | 167 | 1.6 | 8.0 | 0.00 | 0.18 | 0.18 | 35 | 1019.2 |
| 20260831001016 | 26 | 262 | 1.6 | 11.3 | 0.00 | 0.18 | 0.18 | 35 | 1019.3 |
| 20260831000516 | 26 | 263 | 3.2 | 11.3 | 0.00 | 0.18 | 0.18 | 35 | 1019.4 |
| 20260831000026 | 26 | 57 | 0.0 | 8.0 | 0.00 | 0.18 | 0.18 | 34 | 1019.2 |
| 20260830235515 | 26 | 211 | 1.6 | 19.3 | 0.00 | 0.18 | 0.18 | 35 | 1019.1 |
| 20260830235014 | 26 | 221 | 3.2 | 19.3 | 0.00 | 0.18 | 0.18 | 35 | 1018.9 |
| 20260830234528 | 26 | 204 | 9.7 | 22.5 | 0.00 | 0.18 | 0.18 | 34 | 1018.8 |
| 20260830234010 | 26 | 194 | 8.0 | 22.5 | 0.00 | 0.18 | 0.18 | 34 | 1019.0 |
| 20260830233513 | 27 | 255 | 6.4 | 20.9 | 0.00 | 0.18 | 0.18 | 33 | 1019.0 |
| 20260830233024 | 26 | 184 | 6.4 | 20.9 | 0.00 | 0.18 | 0.18 | 35 | 1018.9 |
| 20260830232516 | 26 | 188 | 6.4 | 22.5 | 0.00 | 0.18 | 0.18 | 34 | 1018.9 |